PHSTL EHAM-EHEH

Flight info

Callsign PHSTL
Flight time 0h 32m
Altitude 5000
Route LOPIK
Aircraft BE58/L-SDFGRY/C

Departure

Time 2026-04-29 10:49
Airport Amsterdam Airport Schiphol (EHAM)

Arrival

Time 2026-04-29 11:22
Airport Eindhoven Airport (EHEH)
Time Latitude Longitude Altitude Speed Heading
2026-04-29 10:28 52.31192 4.80811 -5 ft 0 kts 41°
2026-04-29 10:43 52.31157 4.80754 -5 ft 17 kts 222°
2026-04-29 10:43 52.31062 4.80622 -5 ft 18 kts 222°
2026-04-29 10:43 52.30970 4.80483 -5 ft 17 kts 230°
2026-04-29 10:43 52.31013 4.80322 -5 ft 16 kts 311°
2026-04-29 10:44 52.31056 4.80162 -5 ft 16 kts 235°
2026-04-29 10:44 52.30967 4.80029 -5 ft 19 kts 221°
2026-04-29 10:44 52.30848 4.79857 -5 ft 26 kts 220°
2026-04-29 10:44 52.30709 4.79657 -5 ft 27 kts 221°
2026-04-29 10:45 52.30575 4.79465 -5 ft 24 kts 220°
2026-04-29 10:45 52.30452 4.79289 -5 ft 13 kts 223°
2026-04-29 10:45 52.30440 4.79216 -5 ft 7 kts 284°
2026-04-29 10:45 52.30457 4.79165 -5 ft 0 kts 314°
2026-04-29 10:46 52.30457 4.79164 -5 ft 0 kts 314°
2026-04-29 10:48 52.30491 4.79104 -5 ft 18 kts 310°
2026-04-29 10:49 52.30541 4.79073 -5 ft 9 kts 39°
2026-04-29 10:49 52.30777 4.79410 -4 ft 84 kts 42°
2026-04-29 10:49 52.31273 4.80147 296 ft 103 kts 48°
2026-04-29 10:49 52.31779 4.81003 718 ft 109 kts 58°
2026-04-29 10:50 52.31840 4.82128 1179 ft 110 kts 112°
2026-04-29 10:50 52.31193 4.82943 1477 ft 130 kts 149°
2026-04-29 10:50 52.30360 4.83411 1756 ft 122 kts 152°
2026-04-29 10:50 52.29618 4.83903 2152 ft 115 kts 142°
2026-04-29 10:51 52.28875 4.84561 2445 ft 128 kts 140°
2026-04-29 10:51 52.28065 4.85321 2754 ft 138 kts 143°
2026-04-29 10:51 52.27213 4.85920 3198 ft 138 kts 150°
2026-04-29 10:51 52.26306 4.86366 3627 ft 139 kts 158°
2026-04-29 10:52 52.25396 4.86698 4174 ft 122 kts 147°
2026-04-29 10:52 52.24627 4.87255 4441 ft 116 kts 143°
2026-04-29 10:52 52.23870 4.87830 4408 ft 124 kts 145°
2026-04-29 10:52 52.23085 4.88402 4495 ft 119 kts 143°
2026-04-29 10:53 52.22422 4.89104 4660 ft 109 kts 133°
2026-04-29 10:53 52.21811 4.89815 5065 ft 111 kts 133°
2026-04-29 10:53 52.21209 4.90566 5485 ft 111 kts 134°
2026-04-29 10:53 52.20603 4.91332 5877 ft 112 kts 131°
2026-04-29 10:54 52.19946 4.92173 6064 ft 129 kts 135°
2026-04-29 10:54 52.19261 4.92981 6523 ft 123 kts 136°
2026-04-29 10:54 52.18544 4.93828 6730 ft 133 kts 137°
2026-04-29 10:54 52.17782 4.94702 7067 ft 132 kts 136°
2026-04-29 10:55 52.16998 4.95649 7098 ft 148 kts 137°
2026-04-29 10:55 52.16211 4.96661 7196 ft 145 kts 135°
2026-04-29 10:55 52.15448 4.97685 7278 ft 140 kts 132°
2026-04-29 10:55 52.14706 4.98706 7315 ft 139 kts 130°
2026-04-29 10:56 52.13979 4.99760 7310 ft 141 kts 131°
2026-04-29 10:56 52.13241 5.00830 7305 ft 143 kts 130°
2026-04-29 10:56 52.12499 5.01952 7263 ft 145 kts 130°
2026-04-29 10:56 52.11769 5.03051 7334 ft 142 kts 131°
2026-04-29 10:57 52.11005 5.04073 7368 ft 142 kts 134°
2026-04-29 10:57 52.10169 5.05034 7336 ft 148 kts 143°
2026-04-29 10:57 52.09197 5.05627 7410 ft 150 kts 155°
2026-04-29 10:57 52.08125 5.06064 7237 ft 163 kts 159°
2026-04-29 10:58 52.07057 5.06486 7093 ft 158 kts 156°
2026-04-29 10:58 52.05964 5.06988 6729 ft 168 kts 157°
2026-04-29 10:58 52.04794 5.07447 6405 ft 172 kts 160°
2026-04-29 10:58 52.03610 5.07783 6081 ft 176 kts 164°
2026-04-29 10:59 52.02412 5.08071 5819 ft 174 kts 163°
2026-04-29 10:59 52.01260 5.08282 5947 ft 151 kts 172°
2026-04-29 10:59 52.00231 5.08233 5871 ft 149 kts 169°
2026-04-29 10:59 51.99128 5.08246 5377 ft 168 kts 166°
2026-04-29 11:00 51.98155 5.08990 5404 ft 139 kts 135°
2026-04-29 11:00 51.97460 5.09787 6028 ft 121 kts 137°
2026-04-29 11:00 51.96692 5.10504 6242 ft 137 kts 144°
2026-04-29 11:00 51.95741 5.11204 6294 ft 156 kts 149°
2026-04-29 11:01 51.94664 5.11864 6334 ft 170 kts 153°
2026-04-29 11:01 51.93530 5.12384 6530 ft 163 kts 159°
2026-04-29 11:01 51.92455 5.12660 6483 ft 152 kts 164°
2026-04-29 11:01 51.91363 5.12763 6093 ft 163 kts 170°
2026-04-29 11:02 51.90196 5.12714 5763 ft 167 kts 176°
2026-04-29 11:02 51.89063 5.12555 5495 ft 167 kts 180°
2026-04-29 11:02 51.87895 5.12278 5349 ft 156 kts 181°
2026-04-29 11:02 51.86895 5.12089 5314 ft 140 kts 173°
2026-04-29 11:03 51.85928 5.12041 5137 ft 138 kts 171°
2026-04-29 11:03 51.84996 5.12071 4870 ft 143 kts 166°
2026-04-29 11:03 51.83957 5.12214 4478 ft 156 kts 171°
2026-04-29 11:03 51.82856 5.12087 4669 ft 164 kts 180°
2026-04-29 11:04 51.81728 5.11764 5020 ft 162 kts 182°
2026-04-29 11:04 51.80652 5.11457 5431 ft 149 kts 168°
2026-04-29 11:04 51.79626 5.11517 5810 ft 145 kts 168°
2026-04-29 11:04 51.78583 5.11509 6118 ft 150 kts 172°
2026-04-29 11:05 51.77557 5.11563 6446 ft 148 kts 169°
2026-04-29 11:05 51.76564 5.11709 6780 ft 144 kts 162°
2026-04-29 11:05 51.75519 5.11920 6874 ft 156 kts 166°
2026-04-29 11:05 51.74398 5.12077 6916 ft 166 kts 168°
2026-04-29 11:06 51.73225 5.12214 6981 ft 159 kts 169°
2026-04-29 11:06 51.72154 5.12331 7034 ft 149 kts 167°
2026-04-29 11:06 51.71104 5.12408 6992 ft 149 kts 170°
2026-04-29 11:06 51.70047 5.12405 6540 ft 154 kts 172°
2026-04-29 11:07 51.68990 5.12341 5978 ft 151 kts 173°
2026-04-29 11:07 51.67963 5.12271 5412 ft 150 kts 174°
2026-04-29 11:07 51.66940 5.12168 4897 ft 145 kts 175°
2026-04-29 11:07 51.65924 5.12095 4267 ft 147 kts 171°
2026-04-29 11:08 51.64910 5.12097 3687 ft 146 kts 170°
2026-04-29 11:08 51.63909 5.12075 3174 ft 141 kts 171°
2026-04-29 11:08 51.62936 5.12051 2941 ft 135 kts 171°
2026-04-29 11:08 51.62009 5.12002 3017 ft 133 kts 171°
2026-04-29 11:09 51.60962 5.12008 2999 ft 161 kts 171°
2026-04-29 11:09 51.59801 5.12051 2977 ft 172 kts 170°
2026-04-29 11:09 51.58590 5.12109 2917 ft 173 kts 171°
2026-04-29 11:09 51.57422 5.12194 2780 ft 165 kts 167°
2026-04-29 11:10 51.56389 5.12328 3054 ft 143 kts 166°
2026-04-29 11:10 51.55409 5.12511 3021 ft 143 kts 162°
2026-04-29 11:10 51.54415 5.12747 3011 ft 143 kts 162°
2026-04-29 11:10 51.53415 5.12954 3000 ft 144 kts 164°
2026-04-29 11:11 51.52398 5.13121 2884 ft 151 kts 166°
2026-04-29 11:11 51.51357 5.13242 2832 ft 153 kts 168°
2026-04-29 11:11 51.50274 5.13295 2639 ft 165 kts 174°
2026-04-29 11:11 51.49152 5.12918 2667 ft 163 kts 190°
2026-04-29 11:12 51.48081 5.12831 2643 ft 148 kts 160°
2026-04-29 11:12 51.47143 5.13316 2644 ft 139 kts 147°
2026-04-29 11:12 51.46166 5.13623 2638 ft 148 kts 174°
2026-04-29 11:12 51.45169 5.13317 2725 ft 148 kts 186°
2026-04-29 11:13 51.44117 5.12949 2606 ft 156 kts 180°
2026-04-29 11:13 51.43100 5.12782 2853 ft 146 kts 174°
2026-04-29 11:13 51.42061 5.12743 2937 ft 149 kts 172°
2026-04-29 11:13 51.40984 5.12811 2889 ft 159 kts 167°
2026-04-29 11:14 51.39845 5.12988 2824 ft 166 kts 166°
2026-04-29 11:14 51.38756 5.13372 2655 ft 152 kts 146°
2026-04-29 11:14 51.38211 5.14506 2485 ft 116 kts 86°
2026-04-29 11:14 51.38461 5.15792 2603 ft 128 kts 75°
2026-04-29 11:15 51.38359 5.17091 2907 ft 137 kts 148°
2026-04-29 11:15 51.37431 5.17570 2943 ft 142 kts 153°
2026-04-29 11:15 51.36509 5.18286 3076 ft 151 kts 141°
2026-04-29 11:15 51.35617 5.19226 3259 ft 152 kts 138°
2026-04-29 11:16 51.34856 5.20221 3366 ft 136 kts 123°
2026-04-29 11:16 51.34425 5.21568 3169 ft 136 kts 105°
2026-04-29 11:16 51.34172 5.22973 2973 ft 124 kts 97°
2026-04-29 11:16 51.34202 5.24262 2697 ft 119 kts 74°
2026-04-29 11:17 51.34674 5.25453 2300 ft 139 kts 58°
2026-04-29 11:17 51.35313 5.26639 2168 ft 137 kts 47°
2026-04-29 11:17 51.36081 5.27356 1994 ft 118 kts 39°
2026-04-29 11:17 51.36686 5.27999 1750 ft 93 kts 46°
2026-04-29 11:18 51.37197 5.28570 1635 ft 87 kts 45°
2026-04-29 11:18 51.37700 5.29196 1564 ft 98 kts 47°
2026-04-29 11:18 51.38256 5.29940 1424 ft 108 kts 49°
2026-04-29 11:18 51.38846 5.30597 1324 ft 99 kts 40°
2026-04-29 11:19 51.39411 5.31179 1207 ft 91 kts 43°
2026-04-29 11:19 51.39923 5.31732 1119 ft 89 kts 45°
2026-04-29 11:19 51.40407 5.32304 1158 ft 81 kts 46°
2026-04-29 11:19 51.40934 5.32894 913 ft 93 kts 44°
2026-04-29 11:20 51.41413 5.33408 841 ft 81 kts 41°
2026-04-29 11:20 51.41913 5.33983 695 ft 94 kts 48°
2026-04-29 11:20 51.42472 5.34603 520 ft 97 kts 47°
2026-04-29 11:20 51.43012 5.35196 400 ft 92 kts 45°
2026-04-29 11:21 51.43486 5.35730 253 ft 77 kts 45°
2026-04-29 11:21 51.43941 5.36242 153 ft 87 kts 50°
2026-04-29 11:21 51.44421 5.36786 79 ft 73 kts 37°
2026-04-29 11:21 51.44776 5.37184 79 ft 53 kts 35°
2026-04-29 11:22 51.45056 5.37499 79 ft 43 kts 36°
2026-04-29 11:22 51.45261 5.37729 79 ft 29 kts 38°
2026-04-29 11:22 51.45401 5.37833 79 ft 13 kts 308°
2026-04-29 11:22 51.45438 5.37744 79 ft 0 kts 304°
2026-04-29 11:23 51.45439 5.37742 79 ft 0 kts 305°
2026-04-29 11:23 51.45447 5.37724 79 ft 2 kts 303°
2026-04-29 11:23 51.45463 5.37688 79 ft 9 kts 322°
2026-04-29 11:24 51.45484 5.37695 79 ft 3 kts 52°
2026-04-29 11:24 51.45503 5.37727 79 ft 7 kts 33°
2026-04-29 11:24 51.45552 5.37776 79 ft 7 kts 35°
2026-04-29 11:24 51.45652 5.37888 79 ft 22 kts 33°
2026-04-29 11:25 51.45766 5.38010 79 ft 16 kts 26°
2026-04-29 11:25 51.45846 5.37946 79 ft 13 kts 307°
2026-04-29 11:25 51.45858 5.37917 79 ft 6 kts 264°
2026-04-29 11:25 51.45793 5.37827 79 ft 17 kts 220°
2026-04-29 11:26 51.45758 5.37726 79 ft 0 kts 326°